Location: Unspecified
(45.3712°N, 0.6436°E)
Time: 23:29:44
(UTC+02:00)

ISS - Pass Details

Date: 18 July 2018
Orbit: 402 x 408 km, 51.6° (Epoch: 16 July)

Event Time Altitude Azimuth Distance (km) Brightness Sun altitude
Rises 23:50:31 0° 227° (SW) 2,310 -0.1 -17.1°
Enters shadow 23:50:41 - 227° (SW) 2,241 -0.2 -17.1°
Exits shadow 23:58:12 16° 72° (ENE) 1,150 -1.7 -17.8°
Drops below altitude 10° 23:59:00 10° 68° (ENE) 1,466 -1.1 -17.9°
Sets 00:01:07 0° 63° (ENE) 2,330 0.0 -18.1°
